CAPE
61 17 112 197 276 296 246 334 468 400 262 131 215 369 538 710 879 905 672 744 834 885 850 944 1080 806 870 716 961 1042 939 719 1167 1421 837 1452 1470 1570 1629 1512 1236 1853 1408
173 165 93 138 280 370 302 362 572 759 337 87 268 467 550 383 672 904 901 970 541 846 884 802 696 855 991 774 957 1302 972 1051 1081 1264 969 1085 1268 1272 1159 1208 1366 1290 1324
6 97 194 175 293 302 445 585 619 717 566 224 177 183 106 130 310 556 711 880 807 822 508 886 750 743 1035 884 869 862 763 915 932 1136 1212 783 886 741 1140 1300 1303 1414 897
35 44 27 59 1 58 157 216 306 561 765 360 228 251 177 138 51 32 399 918 923 910 747 814 884 830 834 1076 945 1006 786 881 867 894 846 720 701 1067 797 856 1121 999 1030
33 15 32 34 3 3 2 1 19 101 311 504 472 350 261 125 142 331 516 799 1069 1147 1086 1005 1001 898 775 814 1432 1655 1217 1239 1208 1085 997 830 1007 1047 1158 954 838 842 939
28 20 1 17 3 0 9 1 0 0 0 1 238 382 451 594 845 554 590 1083 1227 1309 1562 1469 1277 836 947 754 339 105 503 1589 1670 1172 1563 1390 1551 967 907 855 832 986 1149
2 2 4 0 2 0 0 0 0 0 0 0 16 22 62 176 1 1 0 288 908 951 973 1012 967 1046 887 1083 933 626 191 8 165 1575 1468 1560 1388 1322 969 1015 915 552 896
0 0 1 4 4 3 0 0 0 0 0 0 0 6 84 18 1 1 1 72 270 150 224 297 389 462 50 16 334 897 1061 1083 781 226 315 912 1155 1138 777 1030 942 521 380
0 0 0 0 0 0 2 4 0 0 0 0 0 44 0 1 0 0 2 63 36 18 59 16 13 4 2 0 0 18 96 273 308 220 20 44 26 0 5 96 583 673 883
0 0 0 0 0 0 0 0 0 0 0 0 5 4 0 3 0 0 0 0 0 0 0 0 1 0 1 2 0 0 0 0 0 0 0 73 101 107 0 0 314 647 831
0 0 0 0 0 0 0 0 0 0 0 0 0 0 0 0 0 0 0 0 0 0 0 0 0 0 0 0 0 0 0 0 0 0 0 0 11 187 314 425 42 314 670
0 0 0 0 0 0 0 0 0 0 0 0 0 0 0 0 0 0 0 0 0 0 0 0 0 0 0 0 0 0 0 1 0 0 0 0 0 1 200 357 709 277 441
0 0 0 0 0 0 0 0 0 0 0 0 0 0 0 0 0 0 0 0 0 0 0 0 0 0 0 0 0 0 0 0 3 2 4 7 7 28 229 432 417 514 684
0 0 0 0 0 0 0 0 0 0 0 0 0 0 0 0 0 0 0 0 0 0 0 0 0 0 0 0 0 0 0 0 2 6 4 10 19 18 31 404 315 603 397
0 0 0 0 0 0 0 0 0 0 0 0 0 0 0 0 0 0 0 0 0 0 1 0 0 0 0 0 0 0 0 1 2 12 1 2 8 5 8 40 230 163 178
0 0 0 0 0 0 0 0 0 0 0 0 0 0 0 0 0 0 0 0 0 0 0 1 0 0 0 0 0 0 1 1 5 5 2 19 35 21 11 14 18 31 52
0 0 0 0 0 0 0 0 0 0 0 0 0 0 0 0 0 0 0 0 0 0 0 0 0 0 0 2 18 16 13 5 10 3 41 26 14 4 4 10 10 6 8
0 0 0 0 0 0 0 0 0 0 0 0 0 0 0 0 0 0 0 0 0 0 0 0 0 0 0 1 0 0 1 4 14 18 25 23 32 21 18 12 10 13 12
0 0 0 0 0 0 0 0 0 0 0 0 0 0 0 0 0 0 0 0 0 0 0 0 0 0 0 0 1 12 21 22 21 40 47 21 6 17 9 7 5 2 0
0 0 0 0 0 0 0 0 0 0 0 0 0 0 0 0 0 0 0 0 0 0 2 4 3 4 4 4 7 4 14 10 12 22 26 23 21 19 16 5 4 3 3
0 0 0 0 0 0 0 0 0 0 0 0 0 0 0 0 0 0 0 0 0 1 2 2 3 4 2 4 10 17 7 11 12 17 19 8 45 34 26 23 16 8 13
0 0 0 0 0 0 0 0 0 0 0 0 0 0 0 0 0 0 1 1 2 2 2 5 4 3 3 6 12 14 21 30 25 22 30 50 44 42 31 28 17 11 14
0 0 0 0 0 0 0 0 0 0 0 0 0 0 0 0 0 1 2 2 2 1 2 4 5 3 2 1 8 15 12 21 30 36 34 28 21 18 15 22 30 23 13
0 0 0 0 0 0 0 0 0 0 0 0 0 0 0 0 0 1 2 2 2 1 1 2 2 3 0 2 9 9 14 19 24 21 22 21 18 11 8 22 47 27 20
0 0 0 0 0 0 0 0 0 0 0 0 0 0 0 0 0 0 0 2 2 0 1 1 2 7 5 7 6 6 4 0 1 0 5 7 10 6 11 17 19 24 23
0 0 0 0 0 0 0 0 0 0 0 0 0 0 0 0 0 0 1 2 2 1 3 1 6 6 1 7 4 0 0 0 1 0 2 3 4 5 7 8 10 15 18
CIN
-228 -154 -138 -116 -116 -143 -151 -157 -151 -164 -201 -239 -209 -186 -153 -119 -95 -87 -117 -104 -91 -83 -102 -105 -93 -121 -111 -140 -130 -140 -141 -158 -71 -88 -190 -140 -145 -131 -130 -150 -165 -113 -137
-165 -164 -174 -145 -127 -106 -138 -147 -119 -113 -177 -223 -189 -163 -151 -159 -118 -97 -92 -82 -124 -92 -86 -102 -123 -83 -86 -122 -103 -79 -101 -108 -81 -72 -130 -125 -123 -134 -143 -154 -104 -81 -122
-48 -158 -109 -84 -77 -94 -96 -106 -101 -97 -128 -183 -206 -204 -213 -210 -170 -128 -118 -100 -107 -104 -133 -100 -117 -104 -83 -91 -98 -92 -99 -84 -83 -53 -50 -130 -129 -164 -113 -107 -102 -108 -155
-88 -110 -157 -135 -0 -110 -142 -149 -139 -106 -89 -156 -173 -180 -221 -226 -269 -259 -138 -91 -96 -93 -116 -108 -104 -97 -109 -90 -97 -98 -94 -84 -87 -76 -72 -85 -103 -99 -136 -113 -72 -128 -146
-65 -37 -80 -142 -76 -0 -0 -0 -49 -188 -121 -98 -116 -136 -159 -197 -156 -149 -119 -87 -72 -73 -76 -83 -91 -104 -103 -111 -62 -62 -75 -59 -59 -64 -63 -77 -66 -72 -59 -81 -108 -131 -161
-47 -25 -18 -140 -220 -0 -242 -0 -0 -0 -0 -0 -122 -97 -92 -85 -66 -90 -93 -67 -58 -50 -44 -56 -70 -112 -99 -108 -190 -279 -163 -48 -37 -49 -28 -38 -44 -84 -99 -85 -84 -67 -90
-0 -0 -57 -0 -146 -0 -0 -0 -0 -0 -0 -0 -149 -139 -188 -141 -0 -0 -0 -178 -84 -77 -72 -67 -64 -47 -77 -67 -85 -124 -250 -99 -160 -42 -32 -33 -35 -46 -65 -60 -61 -117 -69
-0 -0 -0 -0 -0 -0 -0 -0 -0 -0 -0 -0 -0 -181 -145 -260 -0 -0 -0 -236 -120 -150 -130 -121 -108 -97 -82 -24 -100 -71 -73 -80 -117 -99 -175 -80 -57 -80 -94 -45 -53 -131 -194
-0 -0 -0 -0 -0 -0 -0 -0 -0 -0 -0 -0 -0 -100 -0 -0 -0 -0 -46 -220 -23 -30 -201 -30 -31 -0 -0 -0 -0 -38 -214 -134 -123 -162 -42 -37 -45 -4 -7 -314 -109 -58 -45
-0 -0 -0 -0 -0 -0 -0 -0 -0 -0 -0 -0 -0 -0 -0 -0 -0 -0 -0 -0 -0 -0 -0 -0 -0 -0 -0 -0 -0 -0 -0 -0 -0 -0 -0 -262 -240 -269 -0 -0 -147 -37 -21
-0 -0 -0 -0 -0 -0 -0 -0 -0 -0 -0 -0 -0 -0 -0 -0 -0 -0 -0 -0 -0 -0 -0 -0 -0 -0 -0 -0 -0 -0 -0 -0 -0 -0 -0 -0 -202 -189 -164 -129 -227 -111 -34
-0 -0 -0 -0 -0 -0 -0 -0 -0 -0 -0 -0 -0 -0 -0 -0 -0 -0 -0 -0 -0 -0 -0 -0 -0 -0 -0 -0 -0 -0 -0 -0 -0 -0 -0 -0 -0 -112 -164 -116 -55 -125 -96
-0 -0 -0 -0 -0 -0 -0 -0 -0 -0 -0 -0 -0 -0 -0 -0 -0 -0 -0 -0 -0 -0 -0 -0 -0 -0 -0 -0 -0 -0 -0 -0 -0 -0 -0 -0 -0 -201 -125 -77 -77 -59 -61
-0 -0 -0 -0 -0 -0 -0 -0 -0 -0 -0 -0 -0 -0 -0 -0 -0 -0 -0 -0 -0 -0 -0 -0 -0 -0 -0 -0 -0 -0 -0 -0 -0 -0 -0 -0 -93 -148 -145 -32 -74 -24 -79
-0 -0 -0 -0 -0 -0 -0 -0 -0 -0 -0 -0 -0 -0 -0 -0 -0 -0 -0 -0 -0 -0 -0 -0 -0 -0 -0 -0 -0 -0 -0 -0 -0 -0 -0 -0 -0 -2 -0 -69 -29 -63 -60
-0 -0 -0 -0 -0 -0 -0 -0 -0 -0 -0 -0 -0 -0 -0 -0 -0 -0 -0 -0 -0 -0 -0 -0 -0 -0 -0 -0 -0 -0 -0 -0 -0 -0 -1 -0 -0 -0 -0 -0 -1 -0 -23
-0 -0 -0 -0 -0 -0 -0 -0 -0 -0 -0 -0 -0 -0 -0 -0 -0 -0 -0 -0 -0 -0 -0 -0 -0 -0 -0 -0 -0 -0 -0 -0 -0 -0 -0 -0 -0 -0 -0 -0 -0 -0 -0
-0 -0 -0 -0 -0 -0 -0 -0 -0 -0 -0 -0 -0 -0 -0 -0 -0 -0 -0 -0 -0 -0 -0 -0 -0 -0 -0 -0 -0 -0 -0 -0 -0 -0 -0 -0 -0 -0 -0 -0 -0 -0 -0
-0 -0 -0 -0 -0 -0 -0 -0 -0 -0 -0 -0 -0 -0 -0 -0 -0 -0 -0 -0 -0 -0 -0 -0 -0 -0 -0 -0 -0 -0 -0 -0 -0 -0 -0 -0 -2 -0 -0 -0 -0 -0 -1
-0 -0 -0 -0 -0 -0 -0 -0 -0 -0 -0 -0 -0 -0 -0 -0 -0 -0 -0 -0 -0 -0 -0 -0 -0 -0 -0 -0 -0 -0 -0 -0 -0 -0 -0 -0 -1 -3 -0 -0 -1 -0 -0
-0 -0 -0 -0 -0 -0 -0 -0 -0 -0 -0 -0 -0 -0 -0 -0 -0 -0 -0 -0 -0 -0 -0 -0 -0 -0 -0 -0 -0 -0 -0 -0 -0 -0 -0 -0 -0 -0 -0 -0 -0 -0 -0
-0 -0 -0 -0 -0 -0 -0 -0 -0 -0 -0 -0 -0 -0 -0 -0 -0 -0 -0 -0 -0 -0 -0 -0 -0 -0 -0 -0 -0 -0 -0 -0 -0 -0 -0 -0 -0 -0 -0 -0 -2 -0 -0
-0 -0 -0 -0 -0 -0 -0 -0 -0 -0 -0 -0 -0 -0 -0 -0 -0 -0 -0 -0 -0 -0 -0 -0 -0 -0 -0 -0 -0 -0 -0 -0 -0 -0 -0 -0 -0 -0 -0 -0 -0 -0 -0
-0 -0 -0 -0 -0 -0 -0 -0 -0 -0 -0 -0 -0 -0 -0 -0 -0 -0 -0 -0 -0 -0 -0 -0 -0 -0 -0 -0 -0 -0 -0 -0 -0 -0 -0 -0 -0 -0 -0 -0 -0 -0 -0
-0 -0 -0 -0 -0 -0 -0 -0 -0 -0 -0 -0 -0 -0 -0 -0 -0 -0 -0 -0 -0 -0 -0 -0 -0 -0 -0 -0 -0 -0 -0 -0 -0 -0 -0 -0 -0 -0 -0 -0 -0 -0 -0
-0 -0 -0 -0 -0 -0 -0 -0 -0 -0 -0 -0 -0 -0 -0 -0 -0 -0 -0 -0 -0 -0 -0 -0 -0 -0 -0 -0 -0 -0 -0 -0 -0 -0 -0 -0 -0 -0 -0 -0 -0 -0 -0
Wind_Speed
8 6 6 5 4 3 4 4 4 3 4 4 4 4 5 5 4 4 4 3 3 3 2 4 4 3 2 2 2 2 2 2 2 2 2 2 4 5 7 5 5 5 5
5 5 6 5 5 4 5 5 4 4 2 5 4 4 4 3 3 5 4 4 4 5 4 4 4 3 3 3 2 4 3 2 2 4 2 2 4 4 5 5 6 7 6
1 5 5 3 2 2 3 3 4 4 4 3 4 5 4 4 4 5 5 5 4 6 5 5 4 4 3 3 3 4 3 3 3 3 4 2 3 3 3 3 5 6 6
5 4 8 7 5 4 4 3 3 3 4 4 5 6 6 5 4 5 5 5 5 6 6 5 5 5 6 5 5 5 4 4 4 4 4 4 4 3 3 4 6 3 8
8 5 7 7 7 7 7 6 7 8 6 4 3 4 4 4 5 6 6 6 6 6 5 6 6 7 8 8 4 5 4 5 4 4 4 3 4 3 4 2 4 6 5
7 7 6 6 7 6 7 7 7 7 8 8 9 6 5 4 7 8 6 5 6 6 6 6 6 6 8 10 10 11 8 6 7 3 4 5 6 4 2 4 4 4 6
7 5 6 7 6 3 6 7 7 6 6 7 6 7 6 6 10 5 3 5 5 5 5 5 7 5 5 6 8 9 9 12 13 6 7 7 7 5 3 6 5 5 7
9 8 7 6 5 4 5 6 5 3 5 5 5 4 5 7 10 8 6 3 2 3 3 4 5 7 9 7 8 9 9 7 6 6 9 10 9 10 7 7 7 7 7
10 8 7 6 7 6 6 5 3 4 3 4 3 6 9 11 18 16 10 8 6 6 6 9 9 8 8 12 8 7 8 9 7 8 9 12 13 13 11 6 7 6 9
7 7 6 6 6 5 3 4 3 4 3 3 9 9 11 12 19 20 13 7 8 7 5 7 8 9 9 8 6 5 6 7 9 11 11 9 9 10 10 9 7 8 8
6 6 6 6 6 6 7 7 7 7 8 7 10 8 11 12 12 19 17 8 6 4 5 5 4 10 12 10 5 5 6 9 11 9 9 8 8 8 8 7 9 9 8
5 7 6 7 6 6 8 8 8 7 8 8 7 6 7 7 12 16 16 13 12 4 5 5 6 12 9 10 7 8 9 8 6 7 7 8 8 8 7 8 8 9 10
6 7 6 7 7 7 8 7 6 6 6 6 6 5 5 6 8 16 15 16 12 6 6 8 10 10 10 7 9 12 8 5 6 7 8 8 7 9 10 9 9 9 11
7 6 6 7 7 7 6 6 6 6 5 6 5 5 5 7 8 9 8 8 9 7 8 6 8 7 6 6 7 8 7 7 7 8 9 9 8 9 9 7 9 7 10
6 5 6 6 6 7 7 6 7 7 7 6 6 6 6 7 8 10 8 8 7 7 7 3 5 8 8 8 8 8 8 8 8 7 8 8 7 7 9 9 6 7 8
6 5 5 5 6 5 5 6 12 12 14 13 11 10 7 10 12 12 14 14 12 12 3 5 6 7 8 9 9 10 9 10 10 9 9 9 9 10 10 10 9 7 7
6 5 5 6 6 6 6 6 6 6 8 10 11 11 10 10 11 11 13 11 9 7 6 7 6 7 8 9 8 9 9 10 12 11 9 8 8 8 9 9 9 9 10
6 10 5 5 6 6 6 6 5 5 5 5 5 8 10 12 11 12 14 7 8 8 7 7 8 8 8 8 9 10 10 10 9 9 10 10 9 9 10 9 9 9 10
6 6 6 6 5 6 5 6 5 5 5 4 4 4 7 8 7 8 10 8 8 8 8 8 8 8 9 9 9 9 10 10 12 11 9 10 11 10 12 11 11 15 13
6 13 8 6 5 5 4 5 5 5 5 5 5 6 6 6 7 8 7 6 6 6 7 8 9 9 10 10 9 10 10 11 11 11 11 11 10 9 11 13 12 12 13
5 6 11 6 5 5 4 4 3 3 4 4 4 4 8 6 6 6 6 6 6 6 6 7 8 8 8 10 11 10 11 9 10 11 12 13 12 9 8 9 10 12 12
7 6 6 6 5 5 5 4 4 3 2 2 2 3 6 4 5 5 6 7 7 7 7 8 8 8 8 8 10 11 12 11 10 10 11 13 12 12 13 13 13 13 13
7 8 7 5 5 7 5 4 4 3 2 1 1 2 3 3 4 5 7 7 7 8 8 8 8 9 8 9 10 9 10 10 11 12 13 13 14 14 14 14 13 13 13
8 8 8 6 6 6 5 4 4 4 3 2 2 1 2 3 4 6 7 7 8 9 9 9 9 14 12 11 10 11 12 12 11 12 17 14 14 16 16 16 13 13 13
9 8 8 7 7 6 5 5 5 4 4 4 3 3 3 3 4 5 6 7 8 8 10 11 10 12 13 18 16 18 17 19 19 21 13 16 18 22 18 16 17 18 20
9 9 8 7 6 6 6 6 6 5 6 5 5 5 4 4 5 5 6 8 7 7 10 9 11 15 18 14 15 19 21 23 20 21 15 13 14 14 14 17 22 16 19
Wind_Direction
173 173 180 198 218 199 222 238 223 199 206 216 211 224 223 221 205 209 212 201 220 246 219 224 237 240 252 260 258 268 251 217 240 282 261 299 293 309 316 322 310 322 341
170 165 187 184 201 208 220 236 241 248 224 216 216 205 198 206 221 215 228 225 208 233 242 238 240 234 239 235 241 256 261 234 243 275 290 298 270 306 300 302 317 321 325
218 138 114 105 152 235 258 274 259 250 226 214 213 218 222 245 232 236 229 244 240 240 233 235 248 222 245 239 228 243 250 253 233 257 293 286 287 304 311 311 300 305 315
64 69 101 94 89 68 47 31 304 278 254 209 216 223 212 226 232 240 235 241 244 245 252 248 249 232 240 240 237 236 240 245 240 248 269 273 261 289 289 292 314 313 317
137 115 101 102 94 89 72 56 58 51 29 342 275 252 245 221 236 226 220 231 242 248 255 256 244 238 230 231 241 254 227 250 266 257 258 255 274 286 294 292 287 301 300
128 124 119 102 92 89 84 69 59 56 53 36 28 1 314 275 269 264 248 228 237 244 258 265 263 259 265 256 238 238 231 248 257 248 269 268 272 269 257 287 296 315 318
82 80 93 83 79 78 100 87 67 60 55 48 35 24 11 10 339 339 270 245 237 241 262 286 294 295 287 296 287 260 247 229 233 258 263 262 275 274 278 294 288 281 284
66 62 64 88 96 72 65 79 80 55 65 61 19 20 47 24 354 11 359 320 329 350 322 315 307 315 12 348 315 301 295 289 258 235 239 261 261 276 251 275 286 290 277
55 45 40 61 75 70 63 55 45 66 62 68 41 43 70 40 16 14 29 49 42 62 46 49 35 44 2 0 9 351 334 318 316 283 258 269 272 268 261 286 275 279 296
50 50 37 41 54 61 75 66 36 33 26 67 85 70 51 58 22 25 17 47 37 344 40 52 53 21 343 339 344 338 316 306 317 316 309 290 270 274 250 227 267 261 275
73 60 50 42 52 38 54 41 38 50 58 55 66 54 68 48 30 36 26 43 28 353 351 10 17 360 335 327 338 315 303 317 305 303 298 296 290 282 277 248 234 240 254
74 66 52 49 54 54 65 54 45 48 57 52 54 53 53 43 36 29 26 37 19 358 356 338 332 334 323 321 321 310 305 287 287 300 298 300 305 302 292 284 264 246 248
73 69 62 59 54 49 61 60 59 49 60 52 54 41 41 20 20 18 17 3 15 8 346 322 314 312 321 334 330 322 326 338 326 324 316 309 303 301 299 291 282 265 259
75 71 58 62 56 51 61 61 62 56 61 62 59 46 39 25 14 5 2 352 348 353 352 345 334 318 310 317 343 351 349 348 341 332 326 317 314 318 314 308 305 300 293
86 74 68 65 62 66 61 53 74 59 61 63 45 48 39 26 4 347 349 343 338 327 321 347 4 3 356 0 1 353 352 348 344 337 327 325 318 322 317 314 297 299 284
96 91 87 84 73 67 75 74 43 66 59 51 58 54 46 19 354 352 344 343 356 352 26 13 9 0 357 348 351 346 342 349 341 337 341 346 348 356 352 339 326 303 291
113 104 101 96 93 90 77 77 87 44 57 46 44 52 41 11 356 350 348 345 2 12 36 17 3 359 352 347 343 352 342 341 344 335 329 338 340 330 337 336 336 332 338
116 119 110 103 102 97 92 86 81 71 62 40 26 37 15 9 4 2 359 358 25 30 26 9 358 353 347 344 340 335 329 326 322 316 315 314 324 322 322 322 321 322 325
133 130 124 114 107 103 99 91 83 75 65 53 30 27 13 3 357 6 7 27 11 5 2 357 349 343 339 335 331 328 330 327 322 318 312 311 309 313 307 305 304 306 307
139 145 139 128 119 109 100 90 80 66 53 39 30 20 7 12 20 15 16 12 9 1 353 346 341 336 332 328 325 325 320 320 318 315 310 305 301 299 301 304 301 301 299
159 157 154 141 139 138 125 104 85 61 46 33 23 3 341 1 1 1 0 1 357 350 344 338 331 325 325 325 321 317 312 313 313 311 309 311 311 301 290 291 298 298 297
167 171 168 167 157 158 157 149 143 131 104 40 6 347 323 358 354 353 351 346 346 339 336 330 325 325 323 317 315 315 313 310 304 296 301 302 300 293 286 281 279 280 281
173 175 181 178 177 172 174 175 175 181 178 184 332 358 0 355 353 355 349 344 339 333 328 325 322 324 323 318 312 306 303 303 305 309 306 302 297 292 288 289 285 280 279
184 184 188 189 188 193 194 196 202 208 225 247 280 324 338 340 339 344 343 336 331 330 328 326 325 324 323 321 314 311 309 306 309 304 301 296 292 289 288 290 284 277 275
192 194 195 194 197 201 202 212 219 225 232 245 259 263 285 307 311 324 333 329 324 318 319 320 318 319 319 316 311 309 308 306 298 294 293 289 285 284 278 273 271 270 268
195 198 203 198 199 200 209 217 224 227 233 238 244 249 258 278 289 302 323 323 311 303 307 311 307 313 318 309 308 305 301 298 295 292 290 287 280 277 273 271 270 266 265